TimeEDT,TemperatureF,Dew PointF,Humidity,Sea Level PressureIn,VisibilityMPH,Wind Direction,Wind SpeedMPH,Gust SpeedMPH,PrecipitationIn,Events,Conditions,WindDirDegrees,DateUTC
12:53 AM,41.0,37.9,89,29.98,10.0,ENE,3.5,-,N/A,,Overcast,60,2013-04-05 04:53:00
1:08 AM,41.0,37.4,87,29.98,10.0,NNE,3.5,-,N/A,,Overcast,30,2013-04-05 05:08:00
1:53 AM,41.0,37.9,89,30.00,10.0,NNE,3.5,-,N/A,,Overcast,20,2013-04-05 05:53:00
2:53 AM,41.0,37.9,89,30.01,4.0,Calm,Calm,-,0.00,Rain,Light Rain,0,2013-04-05 06:53:00
3:05 AM,41.0,37.4,87,30.00,4.0,Calm,Calm,-,0.00,Rain,Light Rain,0,2013-04-05 07:05:00
3:15 AM,41.0,37.4,87,30.00,4.0,Calm,Calm,-,0.00,Rain,Light Rain,0,2013-04-05 07:15:00
3:29 AM,41.0,37.4,87,29.99,4.0,East,3.5,-,0.00,Rain,Light Rain,100,2013-04-05 07:29:00
3:41 AM,41.0,37.4,87,30.00,5.0,East,3.5,-,0.00,Rain,Light Rain,100,2013-04-05 07:41:00
3:53 AM,41.0,37.9,89,30.01,5.0,ENE,3.5,-,0.00,Rain,Light Rain,60,2013-04-05 07:53:00
4:53 AM,41.0,37.9,89,30.02,7.0,Calm,Calm,-,N/A,,Overcast,0,2013-04-05 08:53:00
5:53 AM,39.9,37.9,93,30.02,10.0,Calm,Calm,-,0.00,Rain,Light Rain,0,2013-04-05 09:53:00
6:53 AM,39.0,37.0,93,30.03,5.0,Calm,Calm,-,0.00,,Scattered Clouds,0,2013-04-05 10:53:00
7:06 AM,39.2,37.4,93,30.02,4.0,Calm,Calm,-,N/A,,Mostly Cloudy,0,2013-04-05 11:06:00
7:53 AM,41.0,37.9,89,30.05,4.0,Calm,Calm,-,N/A,,Overcast,0,2013-04-05 11:53:00
8:53 AM,43.0,37.9,82,30.07,5.0,NE,3.5,-,N/A,,Haze,50,2013-04-05 12:53:00
9:53 AM,44.1,39.0,82,30.08,10.0,East,4.6,-,N/A,,Mostly Cloudy,80,2013-04-05 13:53:00
10:16 AM,46.4,42.8,87,30.07,10.0,ENE,5.8,-,N/A,,Mostly Cloudy,60,2013-04-05 14:16:00
10:40 AM,48.2,42.8,82,30.08,10.0,NNE,6.9,-,N/A,,Mostly Cloudy,20,2013-04-05 14:40:00
10:53 AM,48.0,41.0,77,30.08,10.0,NE,6.9,-,N/A,,Overcast,40,2013-04-05 14:53:00
11:53 AM,50.0,41.0,71,30.08,10.0,NNE,5.8,-,N/A,,Scattered Clouds,30,2013-04-05 15:53:00
12:53 PM,54.0,39.9,59,30.06,10.0,Variable,4.6,-,N/A,,Scattered Clouds,0,2013-04-05 16:53:00
1:53 PM,57.0,39.0,51,30.04,10.0,Variable,3.5,-,N/A,,Partly Cloudy,0,2013-04-05 17:53:00
2:53 PM,57.9,37.0,46,30.02,10.0,East,5.8,-,N/A,,Partly Cloudy,90,2013-04-05 18:53:00
3:53 PM,60.1,32.0,35,30.01,10.0,Calm,Calm,-,N/A,,Partly Cloudy,0,2013-04-05 19:53:00
4:53 PM,63.0,32.0,31,30.00,10.0,Variable,4.6,-,N/A,,Partly Cloudy,0,2013-04-05 20:53:00
5:53 PM,63.0,30.0,29,30.00,10.0,Calm,Calm,-,N/A,,Clear,0,2013-04-05 21:53:00
6:53 PM,62.1,30.9,31,30.02,10.0,SSW,3.5,-,N/A,,Clear,210,2013-04-05 22:53:00
7:53 PM,57.0,33.1,40,30.03,10.0,South,4.6,-,N/A,,Clear,190,2013-04-05 23:53:00
8:53 PM,55.9,32.0,40,30.05,10.0,Calm,Calm,-,N/A,,Clear,0,2013-04-06 00:53:00
9:53 PM,55.0,30.9,40,30.07,10.0,Calm,Calm,-,N/A,,Clear,0,2013-04-06 01:53:00
10:53 PM,51.1,34.0,52,30.08,10.0,Calm,Calm,-,N/A,,Clear,0,2013-04-06 02:53:00
11:53 PM,48.9,36.0,61,30.09,10.0,Calm,Calm,-,N/A,,Clear,0,2013-04-06 03:53:00